Terug naar catalogus

PISAT

ActiefAmateurradioSSO
NORAD 41784·PAYLOAD·🇮🇳 India

Gelanceerd Sep 26, 2016 vanaf Satish Dhawan Space Centre

Loading…

Volgende Passages (komende 24 uur)

TLE

VersSource: Space-Track

Epoch: Sep 13, 2026, 23:05 UTC

1 41784U 16059B   26256.96214645  .00000699  00000-0  12639-3 0  9991
2 41784  97.8245 253.6347 0027503 282.7355  77.0777 14.69123524532776

Volg PISAT in realtime met AllMySat

Download on the App Store